Location: Sternwarte auf dem Internationalen Platz Vogelsang IP
(50.5721°N, 6.4398°E)
Time: 22:33:40
(UTC+01:00)

Transit 2A Rocket - Pass Details

Date: 13 December 2025
Orbit: 581 x 903 km, 66.7° (Epoch: 12 January)

Event Time Altitude Azimuth Distance (km) Brightness Sun altitude
Rises 15:05:18 0° 318° (NW) 3,523 8.3 8.5°
Reaches altitude 10° 15:08:18 10° 332° (NNW) 2,591 7.5 8.3°
Maximum altitude 15:13:14 25° 26° (NNE) 1,736 6.4 7.8°
Drops below altitude 10° 15:18:05 10° 81° (E) 2,543 7.3 7.3°
Sets 15:21:00 0° 94° (E) 3,445 8.0 7.0°
